North Pole, Alaska, United States (99705)
Lat: 64.75N, Lon: 147.35W
Wx Zone: AKZ222
Local Info
Past Weather Observations for Wednesday, April 27, 2016

NOTE: This archive is for the closest National Weather Service station to North Pole. Information may differ from the station used for current weather conditions.

Click here for Long-term Archive

Time Weather Temperature Dewpoint Humidity Pressure Winds Precip Visibility
23:58
Overcast
39°F / 4°C 37°F / 3°C 93% 29.68 in
(1005 mb)
Calm - 10SM
23:35
Overcast
39°F / 4°C 39°F / 4°C 100% 29.68 in
(1005 mb)
Variable 1.2 mph
(Variable 2 kph)
- 9SM
23:08
Mostly Cloudy
39°F / 4°C 37°F / 3°C 93% 29.68 in
(1005 mb)
Variable 1.2 mph
(Variable 2 kph)
- 10SM
22:58
Partly Cloudy
41°F / 5°C 37°F / 3°C 87% 29.68 in
(1005 mb)
E 3.5 mph
(E 6 kph)
- 10SM
22:38
Mostly Cloudy
43°F / 6°C 39°F / 4°C 87% 29.68 in
(1005 mb)
SSW 3.5 mph
(SSW 6 kph)
- 10SM
21:58
Overcast
43°F / 6°C 39°F / 4°C 87% 29.71 in
(1006 mb)
SSE 3.5 mph
(SSE 6 kph)
0.00 in
(0.00 mm)
10SM
21:15
Overcast
43°F / 6°C 39°F / 4°C 87% 29.68 in
(1005 mb)
SW 6.9 mph
(SW 11 kph)
- 8SM
21:04
Overcast
43°F / 6°C 39°F / 4°C 87% 29.68 in
(1005 mb)
SW 6.9 mph
(SW 11 kph)
- 7SM
20:58
Overcast
Light Rain
43°F / 6°C 39°F / 4°C 87% 29.68 in
(1005 mb)
SW 5.8 mph
(SW 9 kph)
0.02 in
(0.51 mm)
7SM
20:55
Overcast
Light Rain
43°F / 6°C 39°F / 4°C 87% 29.68 in
(1005 mb)
SW 6.9 mph
(SW 11 kph)
- 7SM
20:41
Overcast
43°F / 6°C 39°F / 4°C 87% 29.68 in
(1005 mb)
SSW 5.8 mph
(SSW 9 kph)
- 8SM
19:58
Overcast
Light Rain
45°F / 7°C 41°F / 5°C 87% 29.68 in
(1005 mb)
SW 4.6 mph
(SW 7 kph)
0.06 in
(1.52 mm)
5SM
19:41
Overcast
Light Rain
45°F / 7°C 41°F / 5°C 87% 29.68 in
(1005 mb)
SW 4.6 mph
(SW 7 kph)
- 3SM
19:35
Overcast
Light Rain
45°F / 7°C 41°F / 5°C 87% 29.68 in
(1005 mb)
SSE 4.6 mph
(SSE 7 kph)
- 3SM
19:28
Overcast
Light Rain
45°F / 7°C 41°F / 5°C 87% 29.68 in
(1005 mb)
SSE 4.6 mph
(SSE 7 kph)
- 2 3/4SM
19:18
Overcast
Light Rain
45°F / 7°C 41°F / 5°C 87% 29.68 in
(1005 mb)
S 4.6 mph
(S 7 kph)
- 2SM
19:13
Overcast
Light Rain
45°F / 7°C 43°F / 6°C 93% 29.68 in
(1005 mb)
S 4.6 mph
(S 7 kph)
- 2 1/2SM
19:08
Overcast
Light Rain
45°F / 7°C 43°F / 6°C 93% 29.68 in
(1005 mb)
Variable 2.3 mph
(Variable 4 kph)
- 3SM
18:58
Overcast
Light Rain
45°F / 7°C 43°F / 6°C 93% 29.68 in
(1005 mb)
ESE 3.5 mph
(ESE 6 kph)
0.03 in
(0.76 mm)
3SM
18:45
Overcast
Light Rain
45°F / 7°C 43°F / 6°C 93% 29.68 in
(1005 mb)
SE 5.8 mph
(SE 9 kph)
- 3SM
18:25
Overcast
Light Rain
45°F / 7°C 43°F / 6°C 93% 29.68 in
(1005 mb)
E 3.5 mph
(E 6 kph)
- 4SM
18:18
Overcast
Light Rain
45°F / 7°C 43°F / 6°C 93% 29.68 in
(1005 mb)
SSE 3.5 mph
(SSE 6 kph)
- 4SM
18:06
Overcast
Light Rain
45°F / 7°C 43°F / 6°C 93% 29.68 in
(1005 mb)
SSE 4.6 mph
(SSE 7 kph)
- 3SM
17:58
Overcast
Light Rain
46°F / 8°C 43°F / 6°C 87% 29.68 in
(1005 mb)
S 5.8 mph
(S 9 kph)
0.05 in
(1.27 mm)
4SM
17:54
Overcast
Light Rain
46°F / 8°C 43°F / 6°C 87% 29.68 in
(1005 mb)
S 6.9 mph
(S 11 kph)
- 4SM
17:39
Overcast
Light Rain
46°F / 8°C 43°F / 6°C 87% 29.68 in
(1005 mb)
S 5.8 mph
(S 9 kph)
- 7SM
17:28
Overcast
Light Rain
46°F / 8°C 43°F / 6°C 87% 29.65 in
(1004 mb)
SSE 11.5 mph
(SSE 19 kph)
- 7SM
17:18
Overcast
Light Rain
48°F / 9°C 43°F / 6°C 82% 29.65 in
(1004 mb)
SSE 13.8 mph
(SSE 22 kph)
- 5SM
17:13
Overcast
Light Rain
48°F / 9°C 43°F / 6°C 82% 29.65 in
(1004 mb)
SSE 13.8 mph
(SSE 22 kph)
- 3SM
17:03
Overcast
Light Rain
52°F / 11°C 41°F / 5°C 67% 29.65 in
(1004 mb)
SSE 17.3 mph
(SSE 28 kph)
- 5SM
16:58
Overcast
Light Rain
52°F / 11°C 41°F / 5°C 67% 29.65 in
(1004 mb)
S 10.4 mph
(S 17 kph)
0.00 in
(0.00 mm)
5SM
16:49
Overcast
Light Rain
54°F / 12°C 39°F / 4°C 58% 29.65 in
(1004 mb)
SSE 11.5 mph
(SSE 19 kph)
- 3SM
15:58
Mostly Cloudy
55°F / 13°C 36°F / 2°C 47% 29.62 in
(1003 mb)
E 6.9 mph
(E 11 kph)
0.00 in
(0.00 mm)
9SM
15:07
Overcast
Hazy
55°F / 13°C 39°F / 4°C 55% 29.65 in
(1004 mb)
NE 9.2 mph
(NE 15 kph)
- 5SM
15:05
Overcast
Light Rain
55°F / 13°C 39°F / 4°C 55% 29.65 in
(1004 mb)
NE 8.1 mph
(NE 13 kph)
- 3SM
14:58
Overcast
Light Rain
55°F / 13°C 39°F / 4°C 55% 29.65 in
(1004 mb)
NNE 10.4 mph
(NNE 17 kph)
0.00 in
(0.00 mm)
5SM
14:49
Overcast
Light Rain
55°F / 13°C 37°F / 3°C 51% 29.65 in
(1004 mb)
NE 15 mph
(NE 24 kph)
- 8SM
14:36
Overcast
57°F / 14°C 32°F / 0°C 39% 29.62 in
(1003 mb)
E 12.7 mph
(E 20 kph)
- 10SM
13:58
Mostly Cloudy
Partly Cloudy
57°F / 14°C 30°F / -1°C 36% 29.65 in
(1004 mb)
SE 3.5 mph
(SE 6 kph)
- 10SM
12:58
Mostly Cloudy
Partly Cloudy
57°F / 14°C 32°F / 0°C 39% 29.65 in
(1004 mb)
SW 6.9 mph
(SW 11 kph)
- 10SM
11:58
Mostly Cloudy
Partly Cloudy
57°F / 14°C 32°F / 0°C 39% 29.65 in
(1004 mb)
S 8.1 mph
(S 13 kph)
- 10SM
10:58
Mostly Cloudy
Partly Cloudy
55°F / 13°C 36°F / 2°C 47% 29.65 in
(1004 mb)
SSW 5.8 mph
(SSW 9 kph)
- 10SM
09:58
Mostly Cloudy
54°F / 12°C 37°F / 3°C 54% 29.68 in
(1005 mb)
W 1.2 mph
(W 2 kph)
- 10SM
08:58
Partly Cloudy
50°F / 10°C 39°F / 4°C 67% 29.68 in
(1005 mb)
Calm - 10SM
07:58
Mostly Cloudy
46°F / 8°C 43°F / 6°C 87% 29.68 in
(1005 mb)
SSE 4.6 mph
(SSE 7 kph)
- 10SM
06:58
Mostly Cloudy
46°F / 8°C 41°F / 5°C 82% 29.68 in
(1005 mb)
Calm - 10SM
05:58
Partly Cloudy
43°F / 6°C 41°F / 5°C 93% 29.68 in
(1005 mb)
SSW 1.2 mph
(SSW 2 kph)
- 10SM
04:58
Clear
43°F / 6°C 41°F / 5°C 93% 29.68 in
(1005 mb)
Calm - 10SM
03:58
Partly Cloudy
45°F / 7°C 43°F / 6°C 93% 29.65 in
(1004 mb)
NE 2.3 mph
(NE 4 kph)
- 10SM
02:58
Mostly Cloudy
45°F / 7°C 41°F / 5°C 87% 29.65 in
(1004 mb)
E 3.5 mph
(E 6 kph)
- 10SM
01:58
Partly Cloudy
48°F / 9°C 41°F / 5°C 76% 29.65 in
(1004 mb)
NNW 3.5 mph
(NNW 6 kph)
- 10SM
00:58
Overcast
48°F / 9°C 41°F / 5°C 76% 29.65 in
(1004 mb)
NNW 9.2 mph
(NNW 15 kph)
0.00 in
(0.00 mm)
9SM
00:39
Overcast
Hazy
48°F / 9°C 43°F / 6°C 82% 29.65 in
(1004 mb)
N 15 mph
(N 24 kph)
- 6SM
00:13
Overcast
Light Rain
48°F / 9°C 43°F / 6°C 82% 29.65 in
(1004 mb)
NW 11.5 mph
(NW 19 kph)
- 9SM
Time Weather Temperature Dewpoint Humidity Pressure Winds Precip Visibility


Weather for websites

WeatherForYou.com, LLC is not responsible for any damages or problems caused by this service. Current weather conditions are obtained from the closest station including government and personal stations which may have varying degrees of accuracy. Weather forecasts are derived from the NOAA NDFD. Like all things, this site belongs to Jesus Christ... He just trusts us to maintain it. If you have any questions or comments email webmaster@weatherforyou.com

Copyright © 2016, WeatherForYou.com LLC. All rights reserved.